Home   Weather   39°49'N, 104°59'W   Past weeks
Flag for USA

Past Weather in 39°49'N, 104°59'W, USA — Yesterday and Last 2 Weeks

Now
63 °F

Passing clouds.


Feels Like: 63 °F
Forecast: 63 / 34 °F
Wind: 5 mph from Northeast

Location: Buckley Air Force Base

Current Time: Oct 19, 2019 at 4:26:48 pm

Latest Report: Oct 19, 2019 at 2:58 pm


Visibility: 10 mi

Pressure: 29.68 "Hg

Humidity: 13%

Dew Point: 11 °F

Location of 39°49'N, 104°59'WLocation

Past Weather in 39°49'N, 104°59'W — Graph

°F

39°49'N, 104°59'W Temperature Yesterday

Maximum temperature yesterday: 64 °F (at 8:58 am)
Minimum temperature yesterday: 36 °F (at 11:58 pm)
Average temperature yesterday: 53 °F

High & Low Weather Summary for the Past Weeks

 TemperatureHumidityPressure
High82 °F (Oct 4, 2:58 pm)98% (Oct 9, 11:58 pm)30.41 "Hg (Oct 9, 11:58 pm)
Low12 °F (Oct 11, 2:58 am)4% (Oct 7, 2:58 pm)29.37 "Hg (Oct 9, 3:58 pm)
Average50 °F37%29.93 "Hg
* Reported Oct 4 2:58 pm — Oct 19 2:58 pm, 39°49'N, 104°59'W. Weather by CustomWeather, © 2019

Note: Actual official high and low records may vary slightly from our data, if they occured in-between our weather recording intervals... More about our weather records

Advertising

39°49'N, 104°59'W Weather History for the Previous 24 Hours

Scroll right to see more
 ConditionsComfort  
Time TempWeatherWind HumidityBarometerVisibility
2:58 pm
Sat, Oct 19
63 °FPassing clouds.5 mph13%29.68 "Hg10 mi
1:58 pm60 °FPassing clouds.5 mph14%29.71 "Hg10 mi
12:58 pm59 °FPassing clouds.13 mph16%29.76 "Hg10 mi
11:58 am57 °FPassing clouds.8 mph19%29.83 "Hg10 mi
10:58 am53 °FPassing clouds.6 mph22%29.87 "Hg10 mi
9:58 am50 °FPassing clouds.5 mph28%29.90 "Hg10 mi
8:58 am44 °FPassing clouds.8 mph40%29.92 "Hg10 mi
7:58 am35 °FPassing clouds.9 mph55%29.92 "Hg10 mi
6:58 am30 °FClear.8 mph64%29.92 "Hg10 mi
5:58 am35 °FClear.No wind52%29.87 "Hg10 mi
4:58 am34 °FClear.10 mph70%29.85 "Hg10 mi
3:58 am34 °FClear.9 mph70%29.84 "Hg10 mi
2:58 am34 °FClear.9 mph70%29.84 "Hg10 mi
1:58 am34 °FClear.10 mph71%29.85 "Hg10 mi
12:58 am34 °FClear.No wind71%29.85 "Hg10 mi
11:58 pm
Fri, Oct 18
36 °FClear.5 mph69%29.83 "Hg10 mi
10:58 pm39 °FClear.3 mph63%29.81 "Hg10 mi
9:58 pm41 °FClear.3 mph58%29.78 "Hg10 mi
8:58 pm40 °FClear.No wind58%29.77 "Hg10 mi
7:58 pm44 °FClear.No wind52%29.76 "Hg10 mi
6:58 pm47 °FPassing clouds.8 mph46%29.70 "Hg10 mi
5:58 pm54 °FScattered clouds.9 mph39%29.67 "Hg10 mi
4:58 pm62 °FScattered clouds.9 mph22%29.61 "Hg10 mi
Weather by CustomWeather, © 2019

See weather overview